Time,TemperatureF,DewpointF,PressureIn,WindDirection,WindDirectionDegrees,WindSpeedMPH,WindSpeedGustMPH,Humidity,HourlyPrecipIn,Conditions,Clouds,dailyrainin,SoftwareType,DateUTC
2013-01-24 00:02:00,7.0,-1.0,30.59,NE,44,5.0,9.0,69,0.00,,,0.00,,2013-01-24 06:02:00,
2013-01-24 00:12:00,7.0,-1.0,30.59,NE,44,5.0,9.0,69,0.00,,,0.00,,2013-01-24 06:12:00,
2013-01-24 00:22:00,7.0,-1.0,30.60,NNE,17,6.0,12.0,69,0.00,,,0.00,,2013-01-24 06:22:00,
2013-01-24 00:32:00,6.0,-2.0,30.59,NNE,18,6.0,12.0,70,0.00,,,0.00,,2013-01-24 06:32:00,
2013-01-24 00:42:00,6.0,-2.0,30.59,NNE,18,6.0,12.0,70,0.00,,,0.00,,2013-01-24 06:42:00,
2013-01-24 00:52:00,6.0,-2.0,30.59,NNE,18,6.0,12.0,70,0.00,,,0.00,,2013-01-24 06:52:00,
2013-01-24 01:02:00,4.0,-5.0,30.60,NNE,22,8.0,13.0,66,0.00,,,0.00,,2013-01-24 07:02:00,
2013-01-24 01:12:00,4.0,-5.0,30.60,NNE,22,8.0,13.0,66,0.00,,,0.00,,2013-01-24 07:12:00,
2013-01-24 01:23:00,4.0,-4.0,30.60,NNE,20,5.0,14.0,67,0.00,,,0.00,,2013-01-24 07:23:00,
2013-01-24 01:33:00,4.0,-4.0,30.62,NE,37,5.0,9.0,68,0.00,,,0.00,,2013-01-24 07:33:00,
2013-01-24 01:42:00,4.0,-4.0,30.62,NE,37,5.0,9.0,68,0.00,,,0.00,,2013-01-24 07:42:00,
2013-01-24 01:52:00,3.0,-5.0,30.61,North,5,5.0,10.0,69,0.00,,,0.00,,2013-01-24 07:52:00,
2013-01-24 02:02:00,3.0,-5.0,30.62,NNE,26,3.0,8.0,70,0.00,,,0.00,,2013-01-24 08:02:00,
2013-01-24 02:12:00,3.0,-5.0,30.62,NNE,26,3.0,8.0,70,0.00,,,0.00,,2013-01-24 08:12:00,
2013-01-24 02:22:00,3.0,-4.0,30.62,North,5,3.0,9.0,71,0.00,,,0.00,,2013-01-24 08:22:00,
2013-01-24 02:33:00,2.0,-6.0,30.63,NE,51,4.0,9.0,70,0.00,,,0.00,,2013-01-24 08:33:00,
2013-01-24 02:43:00,2.0,-6.0,30.63,NE,51,4.0,9.0,70,0.00,,,0.00,,2013-01-24 08:43:00,
2013-01-24 02:52:00,2.0,-6.0,30.63,NE,41,4.0,7.0,69,0.00,,,0.00,,2013-01-24 08:52:00,
2013-01-24 03:03:00,2.0,-5.0,30.62,ENE,57,4.0,8.0,71,0.00,,,0.00,,2013-01-24 09:03:00,
2013-01-24 03:13:00,2.0,-5.0,30.62,ENE,57,4.0,8.0,71,0.00,,,0.00,,2013-01-24 09:13:00,
2013-01-24 03:23:00,2.0,-5.0,30.63,NE,36,5.0,8.0,72,0.00,,,0.00,,2013-01-24 09:23:00,
2013-01-24 03:33:00,2.0,-5.0,30.63,NE,46,5.0,10.0,71,0.00,,,0.00,,2013-01-24 09:33:00,
2013-01-24 03:43:00,2.0,-5.0,30.63,NE,46,5.0,10.0,71,0.00,,,0.00,,2013-01-24 09:43:00,
2013-01-24 03:52:00,2.0,-6.0,30.63,NE,36,8.0,11.0,70,0.00,,,0.00,,2013-01-24 09:52:00,
2013-01-24 04:03:00,1.0,-7.0,30.62,ENE,66,8.0,12.0,68,0.00,,,0.00,,2013-01-24 10:03:00,
2013-01-24 04:12:00,1.0,-7.0,30.62,ENE,66,8.0,12.0,68,0.00,,,0.00,,2013-01-24 10:12:00,
2013-01-24 04:22:00,1.0,-7.0,30.62,NE,55,8.0,11.0,68,0.00,,,0.00,,2013-01-24 10:22:00,
2013-01-24 04:33:00,1.0,-7.0,30.63,NE,56,4.0,7.0,68,0.00,,,0.00,,2013-01-24 10:33:00,
2013-01-24 04:43:00,1.0,-7.0,30.63,NE,56,4.0,7.0,68,0.00,,,0.00,,2013-01-24 10:43:00,
2013-01-24 04:52:00,1.0,-6.0,30.62,ENE,67,2.0,10.0,70,0.00,,,0.00,,2013-01-24 10:52:00,
2013-01-24 05:02:00,1.0,-6.0,30.62,ENE,71,4.0,6.0,71,0.00,,,0.00,,2013-01-24 11:02:00,
2013-01-24 05:12:00,1.0,-6.0,30.62,ENE,71,4.0,6.0,71,0.00,,,0.00,,2013-01-24 11:12:00,
2013-01-24 05:23:00,1.0,-7.0,30.62,NE,50,8.0,12.0,69,0.00,,,0.00,,2013-01-24 11:23:00,
2013-01-24 05:33:00,1.0,-7.0,30.60,ENE,68,8.0,14.0,69,0.00,,,0.00,,2013-01-24 11:33:00,
2013-01-24 05:43:00,1.0,-7.0,30.60,ENE,68,8.0,14.0,69,0.00,,,0.00,,2013-01-24 11:43:00,
2013-01-24 05:52:00,1.0,-7.0,30.60,ENE,57,6.0,11.0,69,0.00,,,0.00,,2013-01-24 11:52:00,
2013-01-24 06:03:00,1.0,-6.0,30.60,ENE,70,8.0,13.0,70,0.00,,,0.00,,2013-01-24 12:03:00,
2013-01-24 06:12:00,1.0,-6.0,30.60,ENE,70,8.0,13.0,70,0.00,,,0.00,,2013-01-24 12:12:00,
2013-01-24 06:22:00,1.0,-6.0,30.60,ENE,74,6.0,9.0,70,0.00,,,0.00,,2013-01-24 12:22:00,
2013-01-24 06:33:00,1.0,-6.0,30.60,ENE,70,4.0,8.0,71,0.00,,,0.00,,2013-01-24 12:33:00,
2013-01-24 06:43:00,1.0,-6.0,30.60,ENE,70,4.0,8.0,71,0.00,,,0.00,,2013-01-24 12:43:00,
2013-01-24 06:53:00,0.0,-7.0,30.60,East,82,4.0,9.0,72,0.00,,,0.00,,2013-01-24 12:53:00,
2013-01-24 07:03:00,0.0,-7.0,30.59,East,95,5.0,9.0,72,0.00,,,0.00,,2013-01-24 13:03:00,
2013-01-24 07:13:00,0.0,-7.0,30.59,East,95,5.0,9.0,72,0.00,,,0.00,,2013-01-24 13:13:00,
2013-01-24 07:23:00,1.0,-6.0,30.60,East,88,4.0,8.0,73,0.00,,,0.00,,2013-01-24 13:23:00,
2013-01-24 07:33:00,1.0,-6.0,30.61,East,94,4.0,9.0,73,0.00,,,0.00,,2013-01-24 13:33:00,
2013-01-24 07:43:00,1.0,-6.0,30.61,East,94,4.0,9.0,73,0.00,,,0.00,,2013-01-24 13:43:00,
2013-01-24 07:53:00,1.0,-6.0,30.61,NE,55,8.0,11.0,73,0.00,,,0.00,,2013-01-24 13:53:00,
2013-01-24 08:03:00,1.0,-6.0,30.60,East,82,8.0,12.0,72,0.00,,,0.00,,2013-01-24 14:03:00,
2013-01-24 08:12:00,1.0,-6.0,30.60,East,82,8.0,12.0,72,0.00,,,0.00,,2013-01-24 14:12:00,
2013-01-24 08:23:00,1.0,-6.0,30.61,ENE,72,6.0,12.0,72,0.00,,,0.00,,2013-01-24 14:23:00,
2013-01-24 08:33:00,1.0,-6.0,30.61,ESE,111,7.0,13.0,72,0.00,,,0.00,,2013-01-24 14:33:00,
2013-01-24 08:43:00,1.0,-6.0,30.61,ESE,111,7.0,13.0,72,0.00,,,0.00,,2013-01-24 14:43:00,
2013-01-24 08:53:00,1.0,-6.0,30.61,ESE,114,6.0,11.0,72,0.00,,,0.00,,2013-01-24 14:53:00,
2013-01-24 09:03:00,1.0,-6.0,30.61,East,82,7.0,11.0,72,0.00,,,0.00,,2013-01-24 15:03:00,
2013-01-24 09:12:00,1.0,-6.0,30.61,East,82,7.0,11.0,72,0.00,,,0.00,,2013-01-24 15:12:00,
2013-01-24 09:23:00,2.0,-5.0,30.60,East,81,6.0,11.0,72,0.00,,,0.00,,2013-01-24 15:23:00,
2013-01-24 09:33:00,2.0,-5.0,30.60,East,81,6.0,11.0,72,0.00,,,0.00,,2013-01-24 15:33:00,
2013-01-24 09:43:00,2.0,-6.0,30.59,ESE,117,11.0,17.0,70,0.00,,,0.00,,2013-01-24 15:43:00,
2013-01-24 09:53:00,2.0,-6.0,30.59,NE,54,11.0,16.0,69,0.00,,,0.00,,2013-01-24 15:53:00,
2013-01-24 10:03:00,3.0,-5.0,30.60,East,87,8.0,16.0,70,0.00,,,0.00,,2013-01-24 16:03:00,
2013-01-24 10:12:00,3.0,-5.0,30.60,East,87,8.0,16.0,70,0.00,,,0.00,,2013-01-24 16:12:00,
2013-01-24 10:23:00,3.0,-5.0,30.60,ESE,112,5.0,16.0,70,0.00,,,0.00,,2013-01-24 16:23:00,
2013-01-24 10:33:00,4.0,-4.0,30.61,ESE,103,8.0,12.0,69,0.00,,,0.00,,2013-01-24 16:33:00,
2013-01-24 10:42:00,4.0,-4.0,30.61,ESE,103,8.0,12.0,69,0.00,,,0.00,,2013-01-24 16:42:00,
2013-01-24 11:02:00,5.0,-3.0,30.59,ESE,109,9.0,12.0,68,0.00,,,0.00,,2013-01-24 17:02:00,
2013-01-24 11:12:00,5.0,-3.0,30.59,ESE,109,9.0,12.0,68,0.00,,,0.00,,2013-01-24 17:12:00,
2013-01-24 11:22:00,5.0,-3.0,30.59,ESE,109,9.0,12.0,68,0.00,,,0.00,,2013-01-24 17:22:00,
2013-01-24 11:32:00,6.0,-3.0,30.58,ESE,113,9.0,12.0,65,0.00,,,0.00,,2013-01-24 17:32:00,
2013-01-24 11:42:00,6.0,-3.0,30.58,ESE,113,9.0,12.0,65,0.00,,,0.00,,2013-01-24 17:42:00,
2013-01-24 11:52:00,7.0,-2.0,30.57,SE,132,8.0,13.0,65,0.00,,,0.00,,2013-01-24 17:52:00,
2013-01-24 12:02:00,8.0,-1.0,30.55,SE,126,7.0,13.0,65,0.00,,,0.00,,2013-01-24 18:02:00,
2013-01-24 12:12:00,8.0,-2.0,30.54,ESE,103,8.0,16.0,63,0.00,,,0.00,,2013-01-24 18:12:00,
2013-01-24 12:22:00,8.0,-2.0,30.54,ESE,103,8.0,16.0,63,0.00,,,0.00,,2013-01-24 18:22:00,
2013-01-24 12:33:00,9.0,-1.0,30.52,SE,130,8.0,13.0,63,0.00,,,0.00,,2013-01-24 18:33:00,
2013-01-24 12:42:00,9.0,-1.0,30.52,SE,130,8.0,13.0,63,0.00,,,0.00,,2013-01-24 18:42:00,
2013-01-24 12:52:00,9.0,-1.0,30.51,ESE,111,5.0,13.0,64,0.00,,,0.00,,2013-01-24 18:52:00,
2013-01-24 13:02:00,10.0,0.0,30.48,SE,142,8.0,16.0,62,0.00,,,0.00,,2013-01-24 19:02:00,
2013-01-24 13:12:00,10.0,0.0,30.48,SE,142,8.0,16.0,62,0.00,,,0.00,,2013-01-24 19:12:00,
2013-01-24 13:22:00,10.0,0.0,30.47,ESE,103,8.0,16.0,62,0.00,,,0.00,,2013-01-24 19:22:00,
2013-01-24 13:33:00,10.0,0.0,30.47,ESE,103,8.0,16.0,62,0.00,,,0.00,,2013-01-24 19:33:00,
2013-01-24 13:42:00,10.0,0.0,30.47,ESE,103,8.0,16.0,62,0.00,,,0.00,,2013-01-24 19:42:00,
2013-01-24 13:52:00,11.0,0.0,30.47,SSE,153,6.0,13.0,60,0.00,,,0.00,,2013-01-24 19:52:00,
2013-01-24 14:02:00,12.0,1.0,30.45,SSE,163,7.0,10.0,61,0.00,,,0.00,,2013-01-24 20:02:00,
2013-01-24 14:11:00,12.0,1.0,30.45,SSE,163,7.0,10.0,61,0.00,,,0.00,,2013-01-24 20:11:00,
2013-01-24 14:22:00,12.0,2.0,30.43,East,86,5.0,12.0,62,0.00,,,0.00,,2013-01-24 20:22:00,
2013-01-24 14:32:00,12.0,2.0,30.42,SSE,149,4.0,14.0,62,0.00,,,0.00,,2013-01-24 20:32:00,
2013-01-24 14:42:00,12.0,2.0,30.42,SSE,149,4.0,14.0,62,0.00,,,0.00,,2013-01-24 20:42:00,
2013-01-24 14:52:00,13.0,2.0,30.41,East,96,5.0,10.0,61,0.00,,,0.00,,2013-01-24 20:52:00,
2013-01-24 15:02:00,13.0,2.0,30.40,ESE,102,8.0,13.0,61,0.00,,,0.00,,2013-01-24 21:02:00,
2013-01-24 15:12:00,13.0,2.0,30.40,ESE,102,8.0,13.0,61,0.00,,,0.00,,2013-01-24 21:12:00,
2013-01-24 15:22:00,13.0,2.0,30.39,ESE,113,7.0,13.0,61,0.00,,,0.00,,2013-01-24 21:22:00,
2013-01-24 15:33:00,13.0,2.0,30.38,SE,137,7.0,13.0,61,0.00,,,0.00,,2013-01-24 21:33:00,
2013-01-24 15:43:00,13.0,2.0,30.38,SE,137,7.0,13.0,61,0.00,,,0.00,,2013-01-24 21:43:00,
2013-01-24 15:52:00,13.0,2.0,30.37,ESE,121,9.0,14.0,61,0.00,,,0.00,,2013-01-24 21:52:00,
2013-01-24 16:03:00,14.0,3.0,30.36,ESE,103,8.0,13.0,61,0.00,,,0.00,,2013-01-24 22:03:00,
2013-01-24 16:12:00,14.0,3.0,30.36,ESE,103,8.0,13.0,61,0.00,,,0.00,,2013-01-24 22:12:00,
2013-01-24 16:22:00,14.0,3.0,30.35,ESE,103,7.0,14.0,62,0.00,,,0.00,,2013-01-24 22:22:00,
2013-01-24 16:32:00,14.0,3.0,30.35,ESE,115,8.0,13.0,61,0.00,,,0.00,,2013-01-24 22:32:00,
2013-01-24 16:42:00,14.0,3.0,30.35,ESE,115,8.0,13.0,61,0.00,,,0.00,,2013-01-24 22:42:00,
2013-01-24 16:52:00,14.0,3.0,30.35,ESE,115,8.0,13.0,61,0.00,,,0.00,,2013-01-24 22:52:00,
2013-01-24 17:02:00,15.0,4.0,30.34,ESE,119,7.0,11.0,62,0.00,,,0.00,,2013-01-24 23:02:00,
2013-01-24 17:12:00,15.0,4.0,30.34,ESE,119,7.0,11.0,62,0.00,,,0.00,,2013-01-24 23:12:00,
2013-01-24 17:22:00,15.0,4.0,30.33,ESE,115,3.0,16.0,62,0.00,,,0.00,,2013-01-24 23:22:00,
2013-01-24 17:32:00,15.0,4.0,30.32,SE,129,8.0,14.0,61,0.00,,,0.00,,2013-01-24 23:32:00,
2013-01-24 17:42:00,15.0,4.0,30.32,SE,129,8.0,14.0,61,0.00,,,0.00,,2013-01-24 23:42:00,
2013-01-24 17:52:00,15.0,4.0,30.32,ESE,112,8.0,16.0,61,0.00,,,0.00,,2013-01-24 23:52:00,
2013-01-24 18:02:00,15.0,4.0,30.31,ESE,113,7.0,13.0,62,0.00,,,0.00,,2013-01-25 00:02:00,
2013-01-24 18:12:00,15.0,4.0,30.31,ESE,113,7.0,13.0,62,0.00,,,0.00,,2013-01-25 00:12:00,
2013-01-24 18:22:00,15.0,4.0,30.29,SSE,149,8.0,15.0,61,0.00,,,0.00,,2013-01-25 00:22:00,
2013-01-24 18:32:00,16.0,5.0,30.29,SE,144,7.0,15.0,61,0.00,,,0.00,,2013-01-25 00:32:00,
2013-01-24 18:42:00,16.0,5.0,30.29,SE,144,7.0,15.0,61,0.00,,,0.00,,2013-01-25 00:42:00,
2013-01-24 18:52:00,16.0,5.0,30.29,SE,128,5.0,12.0,61,0.00,,,0.00,,2013-01-25 00:52:00,
2013-01-24 19:02:00,16.0,5.0,30.29,SE,130,7.0,11.0,61,0.00,,,0.00,,2013-01-25 01:02:00,
2013-01-24 19:12:00,16.0,5.0,30.29,SE,130,7.0,11.0,61,0.00,,,0.00,,2013-01-25 01:12:00,
2013-01-24 19:22:00,16.0,5.0,30.30,SE,134,6.0,11.0,61,0.00,,,0.00,,2013-01-25 01:22:00,
2013-01-24 19:32:00,16.0,5.0,30.32,SSE,155,6.0,16.0,60,0.00,,,0.00,,2013-01-25 01:32:00,
2013-01-24 19:42:00,16.0,5.0,30.32,SSE,155,6.0,16.0,60,0.00,,,0.00,,2013-01-25 01:42:00,
2013-01-24 19:52:00,17.0,5.0,30.30,South,181,9.0,16.0,59,0.00,,,0.00,,2013-01-25 01:52:00,
2013-01-24 20:02:00,17.0,4.0,30.28,East,100,8.0,18.0,57,0.00,,,0.00,,2013-01-25 02:02:00,
2013-01-24 20:11:00,17.0,4.0,30.28,East,100,8.0,18.0,57,0.00,,,0.00,,2013-01-25 02:11:00,
2013-01-24 20:22:00,17.0,5.0,30.27,SSE,150,6.0,15.0,58,0.00,,,0.00,,2013-01-25 02:22:00,
2013-01-24 20:32:00,17.0,4.0,30.30,South,169,4.0,11.0,57,0.00,,,0.00,,2013-01-25 02:32:00,
2013-01-24 20:42:00,17.0,4.0,30.30,South,169,4.0,11.0,57,0.00,,,0.00,,2013-01-25 02:42:00,
2013-01-24 20:52:00,17.0,5.0,30.28,SE,142,7.0,14.0,58,0.00,,,0.00,,2013-01-25 02:52:00,
2013-01-24 21:02:00,17.0,4.0,30.28,SSE,155,9.0,13.0,57,0.00,,,0.00,,2013-01-25 03:02:00,
2013-01-24 21:12:00,17.0,5.0,30.30,SSE,153,4.0,12.0,58,0.00,,,0.00,,2013-01-25 03:12:00,
2013-01-24 21:22:00,17.0,5.0,30.30,SSE,153,4.0,12.0,58,0.00,,,0.00,,2013-01-25 03:22:00,
2013-01-24 21:33:00,17.0,5.0,30.30,SSE,158,6.0,10.0,58,0.00,,,0.00,,2013-01-25 03:33:00,
2013-01-24 21:42:00,17.0,5.0,30.30,SSE,158,6.0,10.0,58,0.00,,,0.00,,2013-01-25 03:42:00,
2013-01-24 21:52:00,17.0,5.0,30.31,SSE,163,4.0,11.0,58,0.00,,,0.00,,2013-01-25 03:52:00,
2013-01-24 22:02:00,17.0,5.0,30.31,South,173,4.0,9.0,58,0.00,,,0.00,,2013-01-25 04:02:00,
2013-01-24 22:12:00,17.0,5.0,30.31,South,173,4.0,9.0,58,0.00,,,0.00,,2013-01-25 04:12:00,
2013-01-24 22:22:00,17.0,5.0,30.31,South,173,4.0,9.0,58,0.00,,,0.00,,2013-01-25 04:22:00,
2013-01-24 22:32:00,17.0,5.0,30.30,South,184,4.0,8.0,59,0.00,,,0.00,,2013-01-25 04:32:00,
2013-01-24 22:41:00,17.0,5.0,30.30,South,184,4.0,8.0,59,0.00,,,0.00,,2013-01-25 04:41:00,
2013-01-24 22:52:00,17.0,5.0,30.30,South,186,5.0,9.0,59,0.00,,,0.00,,2013-01-25 04:52:00,
2013-01-24 23:03:00,17.0,6.0,30.29,South,181,3.0,6.0,60,0.00,,,0.00,,2013-01-25 05:03:00,
2013-01-24 23:12:00,17.0,6.0,30.28,SSE,163,2.0,6.0,60,0.00,,,0.00,,2013-01-25 05:12:00,
2013-01-24 23:22:00,17.0,6.0,30.28,SSE,163,2.0,6.0,60,0.00,,,0.00,,2013-01-25 05:22:00,
2013-01-24 23:32:00,17.0,6.0,30.29,South,180,2.0,5.0,61,0.00,,,0.00,,2013-01-25 05:32:00,
2013-01-24 23:43:00,17.0,6.0,30.29,South,180,2.0,5.0,61,0.00,,,0.00,,2013-01-25 05:43:00,
2013-01-24 23:52:00,18.0,7.0,30.29,South,174,1.0,4.0,61,0.00,,,0.00,,2013-01-25 05:52:00,